Regional Weather Roundup
Issued by NWS

Home | Current Version | Previous Version | Graphics & Text | Print | Product List | Glossary On
Versions: 1 2 3 4 5 6 7 8 9 10 11 12 13 14 15 16 17 18 19 20 21 22 23 24 25 26 27 28 29 30 31 32 33 34 35 36 37 38 39 40 41 42 43 44 45 46 47 48 49 50
000
ASUS45 KABQ 010510
RWRNM
NEW MEXICO REGIONAL WEATHER ROUNDUP
NATIONAL WEATHER SERVICE ALBUQUERQUE NM
1100 PM MDT SAT APR 30 2016

NOTE: "FAIR" MEANS FEW OR NO CLOUDS BELOW 12,000 FEET AGL WITH NO
       SIGNIFICANT WEATHER OR OBSTRUCTIONS TO VISION.

      THIS PRODUCT IS RELEASED AS TWO VERSIONS.  ONE VERSION NEAR
      THE TOP OF THE HOUR CONTAINING PRELIMINARY DATA FROM ALBUQUERQUE
      AND OTHER STATIONS.  A FINAL VERSION WITH ADDITIONAL DATA IS
      ISSUED ABOUT 10 MINUTES AFTER THE HOUR.

NMZ501-503-504-510>518-010600-
NORTHWEST PLATEAU/NORTHCENTRAL MOUNTAINS

CITY           SKY/WX    TMP DP  RH WIND       PRES   REMARKS
FARMINGTON     FAIR      45  33  63 NW3       29.88R
LOS ALAMOS     RAIN      41  41 100 S8        30.00S
SANTA FE       LGT RAIN  42  39  89 E3        29.97R
TAOS           CLOUDY    39  25  56 SE17G25   30.00R WCI  30
ANGEL FIRE     CLOUDY    30  24  77 N13G18    30.08R WCI  20

$$
NMZ402-403-502-505>509-010600-
WESTCENTRAL MOUNTAINS/SOUTHWEST MOUNTAINS

CITY           SKY/WX    TMP DP  RH WIND       PRES   REMARKS
GALLUP         MOCLDY    38  35  89 NE13      29.92F WCI  30
GRANTS         LGT RAIN  39  37  93 W5        29.96S
SILVER CITY      N/A     55  25  30 N3        29.84R

$$
NMZ407-409-411-412-010600-
SOUTHERN DESERTS

CITY           SKY/WX    TMP DP  RH WIND       PRES   REMARKS
LORDSBURG      FAIR      61  30  31 W7        29.78R
DEMING         FAIR      64  17  16 S8        29.78R
LAS CRUCES     FAIR      64  15  15 S8        29.81R
HOLLOMAN AFB   MOCLDY    64  20  18 E6        29.78R
ALAMOGORDO     FAIR      64  19  17 SE5       29.79F
T OR C         CLOUDY    66  20  17 E13       29.79R

$$
NMZ519>523-010600-
CENTRAL VALLEYS/CENTRAL HIGHLANDS

CITY           SKY/WX    TMP DP  RH WIND       PRES   REMARKS
ALBUQUERQUE    CLOUDY    52  39  61 E23G30    29.90S
DOUBLE EAGLE   CLOUDY    46  41  81 N10G17    29.93R
MORIARTY ARPT  CLOUDY    40  35  83 E23G30    29.98F WCI  30
CLINES CORNERS CLOUDY    33  31  92 E21G32    30.00R FOG     WCI  21
BELEN          MOCLDY    49  40  71 NW10      29.88F
SOCORRO        CLOUDY    54  37  52 N14G21    29.89R

$$
NMZ524>526-539-540-010600-
SOUTHCENTRAL MOUNTAINS

CITY           SKY/WX    TMP DP  RH WIND       PRES   REMARKS
RUIDOSO          N/A     48  32  53 SE14G21   30.00R

$$
NMZ527>531-010600-
NORTHEAST HIGHLANDS/NORTHEAST PLAINS

CITY           SKY/WX    TMP DP  RH WIND       PRES   REMARKS
LAS VEGAS      HVY SNOW  31  30  96 NE14      30.09R VSB 1/4 WCI  21
RATON          CLOUDY    35  24  64 N22       30.09R WCI  23
CLAYTON        CLOUDY    39  28  64 N23G40    30.07S WCI  28

$$
NMZ532>537-010600-
EASTCENTRAL PLAINS

CITY           SKY/WX    TMP DP  RH WIND       PRES   REMARKS
TUCUMCARI      LGT RAIN  43  36  76 NE22G29   30.07R
CANNON AFB     NOT AVBL
CLOVIS AIRPORT MOCLDY    45  34  65 NE24G36   30.03R

$$
NMZ028-029-538-010600-
SOUTHEAST PLAINS

CITY           SKY/WX    TMP DP  RH WIND       PRES   REMARKS
ROSWELL        FAIR      64  37  36 NE20G25   29.82R
ARTESIA        FAIR      64  36  34 N9        29.81R
CARLSBAD       FAIR      56  21  25 SW3       29.78R
HOBBS          FAIR      64  37  36 E18G26    29.86R


$$



USA.gov is the U.S. government's official web portal to all federal, state and local government web resources and services.